This demonstration page uses our WeatherBlox Daily Observations layout. Learn more.

Left ArrowRight Arrow

Hourly Observations for October 29, 2016

Temp ( °F °C ) Dew Point ( °F °C ) Humidity (%) Winds ( mph kmh ) Pressure ( in mb ) Visibility ( mi km ) Precip ( " mm )
12:51 am 00:51 Clear 61 16.1 42 5.6 50 50 Calm 29.93 1014 10 16 0.00 0.00
1:51 am 01:51 Cloudy 61 16.1 42 5.6 50 50 Calm 29.93 1014 10 16 0.00 0.00
2:51 am 02:51 Partly Cloudy 59 15 41 5 51 51 Calm 29.94 1014 10 16 0.00 0.00
3:51 am 03:51 Clear 59 15 41 5 51 51 NW 3 6 29.95 1014 10 16 0.00 0.00
4:51 am 04:51 Clear 57 13.9 42 5.6 58 58 VRB 5 7 29.96 1015 10 16 0.00 0.00
5:51 am 05:51 Clear 55 12.8 42 5.6 62 62 Calm 29.99 1016 10 16 0.00 0.00
6:51 am 06:51 Sunny 56 13.3 40 4.4 55 55 WSW 3 6 30.01 1016 10 16 0.00 0.00
7:51 am 07:51 Sunny 63 17.2 43 6.1 48 48 Calm 30.04 1017 10 16 0.00 0.00
8:51 am 08:51 Sunny 70 21.1 43 6.1 38 38 Calm 30.04 1017 10 16 0.00 0.00
9:51 am 09:51 Sunny 76 24.4 44 6.7 32 32 NNE 3 6 30.04 1017 10 16 0.00 0.00
10:51 am 10:51 Sunny 79 26.1 44 6.7 29 29 Calm 30.02 1017 10 16 0.00 0.00
11:51 am 11:51 Sunny 83 28.3 44 6.7 25 25 Calm 29.99 1016 10 16 0.00 0.00
12:51 pm 12:51 Sunny 85 29.4 44 6.7 24 24 Calm 29.95 1014 10 16 0.00 0.00
1:51 pm 13:51 Sunny 88 31.1 44 6.7 22 22 NW 7 11 29.93 1013 10 16 0.00 0.00
2:51 pm 14:51 Sunny 87 30.6 42 5.6 21 21 SSW 3 6 29.92 1013 10 16 0.00 0.00
3:51 pm 15:51 Sunny 87 30.6 42 5.6 21 21 W 7 11 29.92 1013 10 16 0.00 0.00
4:51 pm 16:51 Sunny 85 29.4 42 5.6 22 22 W 8 13 29.93 1014 10 16 0.00 0.00
5:51 pm 17:51 Clear 79 26.1 43 6.1 28 28 WSW 5 7 29.95 1014 10 16 0.00 0.00
6:51 pm 18:51 Clear 71 21.7 43 6.1 36 36 NNE 6 9 29.98 1015 10 16 0.00 0.00
7:51 pm 19:51 Clear 70 21.1 42 5.6 37 37 NNW 5 7 29.98 1015 10 16 0.00 0.00
8:51 pm 20:51 Clear 68 20 43 6.1 40 40 E 5 7 29.98 1015 10 16 0.00 0.00
9:51 pm 21:51 Clear 64 17.8 42 5.6 45 45 Calm 29.98 1015 10 16 0.00 0.00
10:51 pm 22:51 Clear 64 17.8 42 5.6 45 45 SSE 3 6 29.98 1015 10 16 0.00 0.00
11:51 pm 23:51 Clear 61 16.1 42 5.6 50 50 Calm 29.98 1015 10 16 0.00 0.00

Powered by AerisWeather